Location: Auckland
(36.8670°S, 174.7670°E)
Time: 22:26:31
(UTC+13:00)

Cosmos 2228 Rocket - Pass Details

Date: 24 January 2019
Orbit: 617 x 653 km, 82.5° (Epoch: 17 October)

Event Time Altitude Azimuth Distance (km) Brightness Sun altitude
Exits shadow 21:14:02 - 33° (NNE) 2,317 5.4 -7.2°
Reaches altitude 10° 21:15:02 10° 40° (NE) 1,987 5.1 -7.3°
Maximum altitude 21:18:28 23° 92° (E) 1,348 4.3 -7.9°
Drops below altitude 10° 21:21:56 10° 143° (SE) 2,012 5.6 -8.5°
Sets 21:24:33 0° 157° (SSE) 2,931 6.7 -9.0°
